Showing default

NANOACE, 42844

Orbit data source: Space-Track

NANOACE, 42844 is a payload satellite owned by Tyvak NSS (US) in SSO that was launched on Fri, 14 Jul 2017 UTC via a SOYUZ-2-1A launch vehicle from the Tyuratam Missile And Space Complex (TTMTR). Payload-class satellites include a variety of spacecraft equipped with specific instruments for various scientific and technological missions. These include communications satellites like Starlink; space stations such as the ISS; scientific satellites like the Hubble; Earth observation satellites from companies like Planet Labs, Umbra, and HawkEye 360; GPS; miniature CubeSats for education and research; and military/defense satellites.

Loading next visibility...
Identifier
42844, 2017-042V
Orbit
SSO
Country
Flag of USUS
Related business
Manufacturer
Tyvak NSS
Mission
Operational Commercial Technology
Bus & Motor
CUBESAT 3U, Unknown motor
Mass
5.2 kg wet, 5.2 kg dry
Launch date (UTC)
2017-07-14 (9 years ago)
Launch vehicle
SOYUZ-2-1A
Launch site
Tyuratam Missile And Space Complex (TTMTR)
Object type
Payload
Rocket body
Debris
Shape & HBR
Box + 2 Pan, 0.3 m
Radar Cross Section
0.048 m², Small (<0.1 m²)

Expand to show TLE details & history
Last TLE update: 10 hours ago

TLE from 10 hours ago
0 NANOACE
1 42844U 17042V   26034.44939888  .00015008  00000-0  67974-3 0  9994
2 42844  97.3633 211.2351 0005049 119.6043 240.5697 15.20956124467726
Epoch: 2026-02-03T10:47Z
TLE epoch observation values (Epoch: 2026-02-03T10:47:08.063Z)
Latitude
0.00006°
Longitude
-84.17867°
Altitude
507.757 km
Speed
7.609 km/s
True Right ascension
14h 04m 56s
True Declination
0° 00' 00"
Sunlit
Object was in daylight at epoch
Visualization orbit readout
Latitude
Unknown
Longitude
Unknown
Altitude
Unknown
Speed
Unknown
Apparent Right ascension
Unknown
Apparent Declination
Unknown
Sunlit
N/A
Visualization observer readout
Local Sidereal Time
22:51:08
Azimuth
Unknown
Elevation
Unknown
Doppler factor
Unknown
Orbital elements
Apogee altitude
503.391 km
Perigee altitude
496.445 km
Semi-major axis
6,878.055 km
Eccentricity
0.0005
Inclination
97.3633°
RAAN
211.2351°
Arg. of periapsis
119.6043°
True anomaly
240.51932°
Mean anomaly
240.5697°
Eccentric anomaly
240.54451°
Mean motion
3.80491 °/min
Orbital period
94.61 mins
BSTAR
0.00067974
Loading maneuver chart data...
Computing Atmospheric mass density...
Loading historical data...
Loading historical data...
Loading historical data...
Loading historical data...
Loading historical data...
Loading historical data...
Loading historical data...

Documentation

Showing up to 5 results
|